Location: Boca do Mato
(22.9085°S, 43.2930°W)
Time: 22:32:22
(UTC+00:00)

Cosmos 1655 Rocket - Pass Details

Date: 14 July 2020
Orbit: 970 x 1006 km, 83.0° (Epoch: 10 August)

Event Time Altitude Azimuth Distance (km) Brightness Sun altitude
Rises 08:44:24 0° 353° (N) 3,668 7.2 -11.4°
Reaches altitude 10° 08:46:54 10° 352° (N) 2,722 6.5 -10.9°
Maximum altitude 08:53:08 79° 265° (W) 1,000 4.0 -9.5°
Drops below altitude 10° 08:59:24 10° 179° (S) 2,734 6.2 -8.2°
Sets 09:01:56 0° 177° (S) 3,685 6.8 -7.6°
